GW3903 Weather Reports


time (UTC)temp
C
wind
direction
speed
KPH
gust
KPH
rain 1hr
cm
rain 24hr
cm
rain mn
cm
humidity
%
barometer
mb
20260504130400 16 240 11.3 14.5 0.00 0.00 0.00 36 1010.8
20260504120318 14 275 1.6 1.6 0.00 0.00 0.00 43 1011.0
20260504110242 12 274 1.6 3.2 0.00 0.00 0.00 47 1010.9
20260504100200 11 242 3.2 3.2 0.00 0.00 0.00 48 1010.9
20260504090122 11 192 3.2 4.8 0.00 0.00 0.00 46 1010.7
20260504081552 11 250 3.2 4.8 0.00 0.00 0.00 49 1010.6
20260504081048 11 237 3.2 3.2 0.00 0.00 0.00 50 1010.7
20260504080545 10 254 3.2 4.8 0.00 0.00 0.00 50 1010.6
20260504050358 6 249 1.6 1.6 0.00 0.00 0.00 76 1010.6
20260504045855 6 231 1.6 3.2 0.00 0.00 0.00 74 1010.6
20260504045350 6 241 3.2 3.2 0.00 0.00 0.00 76 1010.6
20260504044847 6 282 0.0 0.0 0.00 0.00 0.00 72 1010.5
20260504044345 6 306 0.0 0.0 0.00 0.00 0.00 74 1010.4
20260504043842 6 293 0.0 0.0 0.00 0.00 0.00 73 1010.1
20260504043338 6 283 0.0 0.0 0.00 0.00 0.00 74 1010.2
20260504042836 6 274 0.0 0.0 0.00 0.00 0.00 72 1010.0
20260504042332 6 286 0.0 0.0 0.00 0.00 0.00 73 1010.2
20260504041828 6 284 0.0 0.0 0.00 0.00 0.00 73 1010.0
20260504041325 6 277 0.0 1.6 0.00 0.00 0.00 72 1010.1
20260504040821 6 282 0.0 0.0 0.00 0.00 0.00 71 1010.1
20260504040319 6 273 0.0 1.6 0.00 0.00 0.00 72 1010.0
20260504035815 6 253 1.6 1.6 0.00 0.00 0.00 72 1010.0
20260504035312 6 264 1.6 1.6 0.00 0.00 0.00 71 1010.0
20260504034809 6 289 0.0 0.0 0.00 0.00 0.00 71 1009.9
20260504034307 6 284 0.0 0.0 0.00 0.00 0.00 71 1010.0
20260504033804 6 269 0.0 0.0 0.00 0.00 0.00 71 1009.8
20260504033302 7 277 0.0 0.0 0.00 0.00 0.00 71 1009.9
20260504032758 7 269 0.0 0.0 0.00 0.00 0.00 69 1010.0
20260504032255 7 286 0.0 0.0 0.00 0.00 0.00 69 1010.0
20260504031752 7 268 0.0 1.6 0.00 0.00 0.00 70 1009.9
20260504031249 7 285 0.0 0.0 0.00 0.00 0.00 69 1010.1
20260504030745 7 288 0.0 0.0 0.00 0.00 0.00 69 1010.0
20260504030243 7 278 0.0 0.0 0.00 0.00 0.00 69 1010.0
20260504025739 7 224 1.6 3.2 0.00 0.00 0.00 67 1010.0
20260504025236 7 279 1.6 1.6 0.00 0.00 0.00 68 1009.9
20260504024733 7 249 1.6 1.6 0.00 0.00 0.00 66 1010.1
20260504024229 8 230 3.2 3.2 0.00 0.00 0.00 63 1010.0
20260504023726 7 271 1.6 1.6 0.00 0.00 0.00 65 1010.2
20260504023222 7 240 1.6 3.2 0.00 0.00 0.00 66 1010.2
20260504022718 8 227 1.6 1.6 0.00 0.00 0.00 67 1010.1
20260504022215 8 247 1.6 1.6 0.00 0.00 0.00 67 1010.1
20260504021712 8 261 1.6 1.6 0.00 0.00 0.00 66 1010.0
20260504021209 8 271 1.6 1.6 0.00 0.00 0.00 63 1010.0
20260504020706 8 269 1.6 1.6 0.00 0.00 0.00 64 1010.1
20260504020202 8 253 1.6 1.6 0.00 0.00 0.00 63 1010.1
20260504015658 8 270 1.6 1.6 0.00 0.00 0.00 62 1010.2
20260504015155 8 239 1.6 1.6 0.00 0.00 0.00 60 1010.2
20260504014650 8 251 1.6 1.6 0.00 0.00 0.00 61 1009.9
20260504014148 8 260 1.6 1.6 0.00 0.00 0.00 60 1010.1
20260504013646 8 258 1.6 1.6 0.00 0.00 0.00 60 1010.0
20260504013142 8 268 1.6 1.6 0.00 0.00 0.00 58 1009.9
20260504012639 8 261 1.6 1.6 0.00 0.00 0.00 58 1010.0
20260504012137 9 253 1.6 3.2 0.00 0.00 0.00 57 1010.1
20260504011634 9 249 1.6 1.6 0.00 0.00 0.00 57 1010.0
20260504011130 10 279 1.6 1.6 0.00 0.00 0.00 57 1009.9
20260504010626 10 250 1.6 1.6 0.00 0.00 0.00 55 1009.8
20260504010121 10 250 1.6 1.6 0.00 0.00 0.00 51 1009.9
20260504005619 10 278 1.6 1.6 0.00 0.00 0.00 51 1009.6
20260504005115 10 286 0.0 0.0 0.00 0.00 0.00 49 1009.5
20260504004614 11 254 1.6 1.6 0.00 0.00 0.00 50 1009.8
20260504004111 11 276 1.6 1.6 0.00 0.00 0.00 47 1009.6
20260504003607 11 279 0.0 0.0 0.00 0.00 0.00 50 1009.5
20260504003103 11 247 1.6 1.6 0.00 0.00 0.00 48 1009.5
20260504002600 11 278 1.6 1.6 0.00 0.00 0.00 45 1009.4
20260504002058 11 263 1.6 1.6 0.00 0.00 0.00 47 1009.2
20260504001555 11 264 0.0 1.6 0.00 0.00 0.00 46 1009.3
20260504001051 12 275 1.6 1.6 0.00 0.00 0.00 46 1009.2
20260504000548 12 276 0.0 1.6 0.00 0.00 0.00 45 1009.1
20260504000046 12 257 1.6 1.6 0.00 0.00 0.00 43 1009.1
20260503235544 12 255 1.6 3.2 0.00 0.00 0.00 45 1009.1
20260503235041 13 254 1.6 1.6 0.00 0.00 0.00 41 1008.9
20260503234538 13 265 1.6 1.6 0.00 0.00 0.00 40 1008.9
20260503234037 13 268 1.6 1.6 0.00 0.00 0.00 43 1008.9
20260503233532 13 276 0.0 0.0 0.00 0.00 0.00 43 1008.7
20260503233028 13 231 1.6 3.2 0.00 0.00 0.00 41 1008.7
20260503232526 13 197 3.2 4.8 0.00 0.00 0.00 37 1008.7
20260503232023 13 78 0.0 1.6 0.00 0.00 0.00 40 1008.6
20260503231521 13 290 0.0 1.6 0.00 0.00 0.00 42 1008.5
20260503231018 14 261 0.0 1.6 0.00 0.00 0.00 37 1008.4
20260503230514 14 286 1.6 3.2 0.00 0.00 0.00 36 1008.4
20260503230012 14 278 1.6 3.2 0.00 0.00 0.00 36 1008.6
20260503225508 14 247 0.0 1.6 0.00 0.00 0.00 34 1008.2
20260503224958 14 15 1.6 3.2 0.00 0.00 0.00 35 1008.3
20260503224456 15 291 3.2 3.2 0.00 0.00 0.00 35 1008.3
20260503223953 15 259 1.6 1.6 0.00 0.00 0.00 35 1008.4
20260503223451 15 181 6.4 6.4 0.00 0.00 0.00 34 1008.4
20260503222946 15 329 1.6 3.2 0.00 0.00 0.00 34 1008.3
20260503222445 15 279 1.6 1.6 0.00 0.00 0.00 33 1008.3
20260503221943 15 302 1.6 3.2 0.00 0.00 0.00 36 1008.2
20260503221441 15 279 0.0 0.0 0.00 0.00 0.00 32 1008.0
20260503220938 15 179 1.6 3.2 0.00 0.00 0.00 30 1008.1
20260503220434 15 182 1.6 3.2 0.00 0.00 0.00 33 1008.0
20260503215931 15 299 1.6 3.2 0.00 0.00 0.00 34 1008.3
20260503215428 15 296 1.6 1.6 0.00 0.00 0.00 33 1008.2
20260503214926 15 262 4.8 6.4 0.00 0.00 0.00 30 1008.1
20260503214423 15 318 3.2 3.2 0.00 0.00 0.00 30 1008.1
20260503213920 15 320 1.6 1.6 0.00 0.00 0.00 29 1007.9
20260503213418 15 261 8.0 12.9 0.00 0.00 0.00 28 1008.1
20260503212914 16 229 8.0 9.7 0.00 0.00 0.00 28 1008.1
20260503212412 15 290 1.6 1.6 0.00 0.00 0.00 29 1008.0
20260503211909 16 300 1.6 3.2 0.00 0.00 0.00 29 1008.2
20260503211406 16 231 6.4 9.7 0.00 0.00 0.00 28 1008.1
20260503210901 16 271 1.6 3.2 0.00 0.00 0.00 29 1007.9
20260503210358 16 293 1.6 3.2 0.00 0.00 0.00 28 1008.1
20260503205853 16 299 4.8 6.4 0.00 0.00 0.00 28 1008.1
20260503205350 16 137 4.8 6.4 0.00 0.00 0.00 29 1007.9
20260503204847 16 254 3.2 3.2 0.00 0.00 0.00 31 1007.9
20260503204344 16 341 1.6 1.6 0.00 0.00 0.00 30 1008.0
20260503203841 15 253 3.2 3.2 0.00 0.00 0.00 31 1008.3
20260503203339 16 271 3.2 3.2 0.00 0.00 0.00 31 1008.2
20260503202835 16 302 3.2 4.8 0.00 0.00 0.00 32 1008.0
20260503202333 16 319 3.2 3.2 0.00 0.00 0.00 30 1008.0
20260503201831 16 214 3.2 3.2 0.00 0.00 0.00 33 1008.2
20260503201327 15 238 0.0 3.2 0.00 0.00 0.00 31 1008.3
20260503200825 15 251 3.2 4.8 0.00 0.00 0.00 30 1008.2
20260503200321 16 292 1.6 1.6 0.00 0.00 0.00 30 1008.4
20260503195819 15 316 3.2 4.8 0.00 0.00 0.00 31 1008.3
20260503195315 15 336 3.2 4.8 0.00 0.00 0.00 32 1008.4
20260503194813 15 241 11.3 14.5 0.00 0.00 0.00 30 1008.5
20260503194308 15 241 6.4 11.3 0.00 0.00 0.00 33 1008.7
20260503193805 15 279 0.0 0.0 0.00 0.00 0.00 33 1008.7
20260503193301 13 2 6.4 6.4 0.00 0.00 0.00 36 1008.7
20260503192757 13 309 3.2 4.8 0.00 0.00 0.00 33 1008.7
20260503192252 13 344 0.0 1.6 0.00 0.00 0.00 36 1008.9
20260503191749 14 128 1.6 1.6 0.00 0.00 0.00 36 1008.9
20260503191246 14 255 3.2 4.8 0.00 0.00 0.00 33 1009.0
20260503190742 13 238 9.7 14.5 0.00 0.00 0.00 35 1008.8
20260503190239 13 280 3.2 3.2 0.00 0.00 0.00 36 1009.0
20260503185736 13 255 3.2 4.8 0.00 0.00 0.00 36 1009.1
20260503185232 13 307 1.6 1.6 0.00 0.00 0.00 39 1008.9
20260503184727 13 336 3.2 3.2 0.00 0.00 0.00 36 1009.0
20260503184223 13 266 1.6 1.6 0.00 0.00 0.00 39 1009.1
20260503183720 13 302 1.6 1.6 0.00 0.00 0.00 36 1009.1
20260503183217 13 345 3.2 3.2 0.00 0.00 0.00 36 1009.2
20260503182715 13 285 1.6 1.6 0.00 0.00 0.00 37 1009.1
20260503182214 14 99 3.2 4.8 0.00 0.00 0.00 35 1009.2
20260503181709 13 356 1.6 3.2 0.00 0.00 0.00 36 1009.2
20260503181207 13 317 4.8 4.8 0.00 0.00 0.00 38 1009.4
20260503180703 13 239 1.6 1.6 0.00 0.00 0.00 37 1009.4
20260503180202 12 294 1.6 3.2 0.00 0.00 0.00 39 1009.5
20260503175658 12 229 3.2 3.2 0.00 0.00 0.00 41 1009.4
20260503175155 11 244 3.2 3.2 0.00 0.00 0.00 39 1009.6
20260503174651 11 67 4.8 6.4 0.00 0.00 0.00 42 1009.6
20260503174149 11 283 0.0 1.6 0.00 0.00 0.00 42 1009.6
20260503173644 11 93 1.6 1.6 0.00 0.00 0.00 40 1009.7
20260503173141 12 292 1.6 3.2 0.00 0.00 0.00 42 1009.7
20260503172638 11 275 1.6 3.2 0.00 0.00 0.00 40 1009.8
20260503172135 11 310 4.8 9.7 0.00 0.00 0.00 40 1009.9
20260503171631 11 281 6.4 9.7 0.00 0.00 0.00 40 1009.9
20260503171129 11 299 8.0 11.3 0.00 0.00 0.00 41 1009.9
20260503170626 11 118 1.6 3.2 0.00 0.00 0.00 44 1009.8
20260503170122 11 279 0.0 0.0 0.00 0.00 0.00 42 1010.1
20260503150514 11 353 3.2 4.8 0.00 0.00 0.00 39 1010.2